Regional Weather Roundup
Issued by NWS Charleston, WV

Home | Current Version | Previous Version | Text Only | Print | Product List | Glossary Off
Versions: 1 2 3 4 5 6 7 8 9 10 11 12 13 14 15 16 17 18 19 20 21 22 23 24 25 26 27 28 29 30 31 32 33 34 35 36 37 38 39 40 41 42 43 44 45 46 47 48 49 50

000
ASUS41 KRLX 021710
RWRRLX
West Virginia Regional Weather Roundup
National Weather Service Charleston WV
100 PM EDT SUN AUG 02 2015

Note: "fair" indicates few or no clouds below 12,000 feet with no
significant weather and/or obstructions to visibility.

WVZ003-021800-
Northern Panhandle of West Virginia

CITY           SKY/WX    TMP DP  RH WIND       PRES   REMARKS
WHEELING       CLOUDY    82  62  50 W9G17     29.96F
$$

WVZ009-021800-
Northwest West Virginia

CITY           SKY/WX    TMP DP  RH WIND       PRES   REMARKS
PARKERSBURG    MOSUNNY   84  59  42 W10       30.01F
$$

WVZ006-021800-
Western West Virginia

CITY           SKY/WX    TMP DP  RH WIND       PRES   REMARKS
HUNTINGTON     SUNNY     84  60  44 VRB5      30.01S
$$

WVZ015-021800-
West Central West Virginia

CITY           SKY/WX    TMP DP  RH WIND       PRES   REMARKS
CHARLESTON     MOSUNNY   81  56  42 VRB3      30.02S
$$

WVZ022-031-021800-
North Central West Virginia

CITY           SKY/WX    TMP DP  RH WIND       PRES   REMARKS
CLARKSBURG     MOSUNNY   79  61  53 SW8       30.01F
MORGANTOWN     MOSUNNY   79  58  48 SW7       30.02F
$$

WVZ025-035-042-045-021800-
Southern West Virginia

CITY           SKY/WX    TMP DP  RH WIND       PRES   REMARKS
BECKLEY        PTSUNNY   74  56  53 VRB5      30.10F
LOGAN            N/A     79  61  53 CALM      30.02F
BLUEFIELD      PTSUNNY   74  52  46 CALM      30.13F
LEWISBURG      PTSUNNY   73  57  58 S3        30.10S
$$

WVZ047-021800-
Northern Mountains of West Virginia

CITY           SKY/WX    TMP DP  RH WIND       PRES   REMARKS
ELKINS         SUNNY     78  53  41 VRB5      30.06F
$$

WVZ052-021800-
Eastern Panhandle of West Virginia

CITY           SKY/WX    TMP DP  RH WIND       PRES   REMARKS
MARTINSBURG    MOSUNNY   83  55  38 VRB5      29.98F
PETERSBURG     CLOUDY   N/A N/A N/A CALM      30.01S
$$



USA.gov is the U.S. government's official web portal to all federal, state and local government web resources and services.